Time,TemperatureF,DewpointF,PressureIn,WindDirection,WindDirectionDegrees,WindSpeedMPH,WindSpeedGustMPH,Humidity,HourlyPrecipIn,Conditions,Clouds,dailyrainin,SoftwareType,DateUTC
2013-06-10 00:02:00,66.0,64.0,29.75,South,190,0.0,0.0,93,0.00,,,0.05,,2013-06-10 05:02:00,
2013-06-10 00:12:00,66.0,64.0,29.75,South,190,0.0,0.0,93,0.00,,,0.05,,2013-06-10 05:12:00,
2013-06-10 00:22:00,65.0,63.0,29.75,South,190,0.0,0.0,93,0.00,,,0.05,,2013-06-10 05:22:00,
2013-06-10 00:32:00,65.0,63.0,29.75,South,190,0.0,0.0,94,0.00,,,0.05,,2013-06-10 05:32:00,
2013-06-10 00:42:00,65.0,63.0,29.75,South,190,0.0,0.0,94,0.00,,,0.05,,2013-06-10 05:42:00,
2013-06-10 00:52:00,65.0,63.0,29.75,South,190,0.0,0.0,94,0.00,,,0.05,,2013-06-10 05:52:00,
2013-06-10 01:02:00,65.0,63.0,29.75,South,190,0.0,0.0,94,0.00,,,0.05,,2013-06-10 06:02:00,
2013-06-10 01:12:00,65.0,63.0,29.75,South,190,0.0,0.0,94,0.00,,,0.05,,2013-06-10 06:12:00,
2013-06-10 01:22:00,65.0,63.0,29.75,South,190,0.0,0.0,94,0.00,,,0.05,,2013-06-10 06:22:00,
2013-06-10 01:32:00,64.0,63.0,29.74,South,190,0.0,0.0,95,0.01,,,0.06,,2013-06-10 06:32:00,
2013-06-10 01:42:00,64.0,63.0,29.74,South,190,0.0,0.0,95,0.01,,,0.06,,2013-06-10 06:42:00,
2013-06-10 01:52:00,64.0,63.0,29.74,South,190,0.0,0.0,95,0.01,,,0.06,,2013-06-10 06:52:00,
2013-06-10 02:02:00,64.0,63.0,29.73,South,190,0.0,0.0,95,0.01,,,0.06,,2013-06-10 07:02:00,
2013-06-10 02:12:00,64.0,63.0,29.73,South,190,0.0,0.0,95,0.01,,,0.06,,2013-06-10 07:12:00,
2013-06-10 02:22:00,64.0,63.0,29.72,South,190,0.0,0.0,95,0.01,,,0.06,,2013-06-10 07:22:00,
2013-06-10 02:32:00,64.0,63.0,29.72,South,190,0.0,0.0,95,0.00,,,0.06,,2013-06-10 07:32:00,
2013-06-10 02:42:00,64.0,63.0,29.72,South,190,0.0,0.0,95,0.00,,,0.06,,2013-06-10 07:42:00,
2013-06-10 02:52:00,64.0,63.0,29.72,South,190,0.0,0.0,95,0.00,,,0.06,,2013-06-10 07:52:00,
2013-06-10 03:02:00,64.0,63.0,29.71,South,190,0.0,0.0,95,0.00,,,0.06,,2013-06-10 08:02:00,
2013-06-10 03:12:00,64.0,63.0,29.71,South,190,0.0,0.0,95,0.00,,,0.06,,2013-06-10 08:12:00,
2013-06-10 03:22:00,64.0,63.0,29.71,South,190,0.0,0.0,95,0.00,,,0.06,,2013-06-10 08:22:00,
2013-06-10 03:32:00,64.0,63.0,29.71,South,190,0.0,1.0,96,0.00,,,0.06,,2013-06-10 08:32:00,
2013-06-10 03:42:00,64.0,63.0,29.71,South,190,0.0,1.0,96,0.00,,,0.06,,2013-06-10 08:42:00,
2013-06-10 03:52:00,64.0,63.0,29.71,South,190,0.0,0.0,95,0.00,,,0.06,,2013-06-10 08:52:00,
2013-06-10 04:02:00,63.0,62.0,29.72,South,190,0.0,0.0,95,0.00,,,0.06,,2013-06-10 09:02:00,
2013-06-10 04:12:00,63.0,62.0,29.72,South,190,0.0,0.0,95,0.00,,,0.06,,2013-06-10 09:12:00,
2013-06-10 04:22:00,63.0,62.0,29.72,South,190,0.0,0.0,95,0.00,,,0.06,,2013-06-10 09:22:00,
2013-06-10 04:32:00,63.0,62.0,29.72,South,190,0.0,0.0,95,0.00,,,0.06,,2013-06-10 09:32:00,
2013-06-10 04:42:00,63.0,62.0,29.72,South,190,0.0,0.0,95,0.00,,,0.06,,2013-06-10 09:42:00,
2013-06-10 04:53:00,63.0,62.0,29.72,South,190,0.0,0.0,96,0.00,,,0.06,,2013-06-10 09:53:00,
2013-06-10 05:03:00,63.0,62.0,29.72,South,190,0.0,0.0,96,0.00,,,0.06,,2013-06-10 10:03:00,
2013-06-10 05:12:00,63.0,62.0,29.72,South,190,0.0,0.0,96,0.00,,,0.06,,2013-06-10 10:12:00,
2013-06-10 05:22:00,62.0,61.0,29.72,South,190,0.0,0.0,96,0.00,,,0.06,,2013-06-10 10:22:00,
2013-06-10 05:33:00,62.0,61.0,29.72,South,190,0.0,0.0,95,0.00,,,0.06,,2013-06-10 10:33:00,
2013-06-10 05:42:00,62.0,61.0,29.72,South,190,0.0,0.0,95,0.00,,,0.06,,2013-06-10 10:42:00,
2013-06-10 05:52:00,62.0,61.0,29.71,South,184,0.0,4.0,96,0.00,,,0.06,,2013-06-10 10:52:00,
2013-06-10 06:03:00,62.0,61.0,29.72,SW,234,0.0,3.0,95,0.00,,,0.06,,2013-06-10 11:03:00,
2013-06-10 06:12:00,62.0,61.0,29.72,SW,234,0.0,3.0,95,0.00,,,0.06,,2013-06-10 11:12:00,
2013-06-10 06:22:00,62.0,61.0,29.72,West,277,0.0,2.0,95,0.00,,,0.06,,2013-06-10 11:22:00,
2013-06-10 06:32:00,62.0,61.0,29.72,WNW,300,0.0,3.0,95,0.00,,,0.06,,2013-06-10 11:32:00,
2013-06-10 06:42:00,62.0,61.0,29.72,WNW,300,0.0,3.0,95,0.00,,,0.06,,2013-06-10 11:42:00,
2013-06-10 06:52:00,62.0,61.0,29.73,SW,225,0.0,1.0,95,0.00,,,0.06,,2013-06-10 11:52:00,
2013-06-10 07:02:00,62.0,61.0,29.73,WNW,292,0.0,2.0,95,0.00,,,0.06,,2013-06-10 12:02:00,
2013-06-10 07:12:00,62.0,61.0,29.73,WNW,292,0.0,2.0,95,0.00,,,0.06,,2013-06-10 12:12:00,
2013-06-10 07:22:00,62.0,61.0,29.73,West,264,0.0,3.0,96,0.00,,,0.06,,2013-06-10 12:22:00,
2013-06-10 07:32:00,62.0,61.0,29.72,NW,321,0.0,2.0,95,0.00,,,0.06,,2013-06-10 12:32:00,
2013-06-10 07:42:00,62.0,61.0,29.72,NW,321,0.0,2.0,95,0.00,,,0.06,,2013-06-10 12:42:00,
2013-06-10 07:52:00,63.0,62.0,29.74,NNW,329,3.0,6.0,95,0.00,,,0.06,,2013-06-10 12:52:00,
2013-06-10 08:02:00,64.0,62.0,29.74,NW,321,2.0,5.0,94,0.00,,,0.06,,2013-06-10 13:02:00,
2013-06-10 08:12:00,64.0,62.0,29.74,NW,321,2.0,5.0,94,0.00,,,0.06,,2013-06-10 13:12:00,
2013-06-10 08:22:00,64.0,62.0,29.74,NW,320,1.0,6.0,93,0.00,,,0.06,,2013-06-10 13:22:00,
2013-06-10 08:32:00,65.0,63.0,29.74,NW,321,0.0,2.0,93,0.00,,,0.06,,2013-06-10 13:32:00,
2013-06-10 08:42:00,65.0,63.0,29.74,NW,321,0.0,2.0,93,0.00,,,0.06,,2013-06-10 13:42:00,
2013-06-10 08:52:00,65.0,63.0,29.73,NW,321,0.0,2.0,92,0.00,,,0.06,,2013-06-10 13:52:00,
2013-06-10 09:02:00,66.0,63.0,29.74,NW,311,1.0,3.0,90,0.00,,,0.06,,2013-06-10 14:02:00,
2013-06-10 09:12:00,66.0,63.0,29.74,NW,311,1.0,3.0,90,0.00,,,0.06,,2013-06-10 14:12:00,
2013-06-10 09:22:00,67.0,63.0,29.75,NW,322,0.0,3.0,88,0.00,,,0.06,,2013-06-10 14:22:00,
2013-06-10 09:32:00,68.0,64.0,29.75,NW,319,0.0,3.0,87,0.00,,,0.06,,2013-06-10 14:32:00,
2013-06-10 09:42:00,68.0,64.0,29.75,NW,319,0.0,3.0,87,0.00,,,0.06,,2013-06-10 14:42:00,
2013-06-10 09:52:00,69.0,64.0,29.75,NNW,329,0.0,4.0,85,0.00,,,0.06,,2013-06-10 14:52:00,
2013-06-10 10:02:00,70.0,65.0,29.75,NW,312,1.0,5.0,84,0.00,,,0.06,,2013-06-10 15:02:00,
2013-06-10 10:12:00,70.0,65.0,29.75,NW,312,1.0,5.0,84,0.00,,,0.06,,2013-06-10 15:12:00,
2013-06-10 10:22:00,71.0,65.0,29.75,WNW,302,1.0,5.0,81,0.00,,,0.06,,2013-06-10 15:22:00,
2013-06-10 10:33:00,70.0,64.0,29.75,NNW,329,2.0,6.0,81,0.00,,,0.06,,2013-06-10 15:33:00,
2013-06-10 10:43:00,70.0,64.0,29.75,NNW,329,2.0,6.0,81,0.00,,,0.06,,2013-06-10 15:43:00,
2013-06-10 10:53:00,71.0,65.0,29.74,NW,319,0.0,4.0,80,0.00,,,0.06,,2013-06-10 15:53:00,
2013-06-10 11:03:00,72.0,64.0,29.75,NW,316,2.0,5.0,77,0.00,,,0.06,,2013-06-10 16:03:00,
2013-06-10 11:12:00,72.0,64.0,29.75,NW,316,2.0,5.0,77,0.00,,,0.06,,2013-06-10 16:12:00,
2013-06-10 11:23:00,73.0,65.0,29.75,NNE,17,1.0,5.0,75,0.00,,,0.06,,2013-06-10 16:23:00,
2013-06-10 11:33:00,74.0,63.0,29.75,WNW,295,1.0,4.0,69,0.00,,,0.06,,2013-06-10 16:33:00,
2013-06-10 11:43:00,74.0,63.0,29.75,WNW,295,1.0,4.0,69,0.00,,,0.06,,2013-06-10 16:43:00,
2013-06-10 11:52:00,73.0,64.0,29.75,NW,304,2.0,5.0,73,0.00,,,0.06,,2013-06-10 16:52:00,
2013-06-10 12:03:00,74.0,64.0,29.75,WSW,251,2.0,7.0,70,0.00,,,0.06,,2013-06-10 17:03:00,
2013-06-10 12:14:00,74.0,64.0,29.75,WSW,251,2.0,7.0,70,0.00,,,0.06,,2013-06-10 17:14:00,
2013-06-10 12:27:00,74.0,63.0,29.75,NNW,339,3.0,7.0,68,0.00,,,0.06,,2013-06-10 17:27:00,
2013-06-10 12:38:00,75.0,64.0,29.75,NNW,340,1.0,6.0,68,0.00,,,0.06,,2013-06-10 17:38:00,
2013-06-10 12:48:00,76.0,63.0,29.75,NW,316,5.0,9.0,64,0.00,,,0.06,,2013-06-10 17:48:00,
2013-06-10 12:57:00,76.0,63.0,29.75,NW,316,5.0,9.0,64,0.00,,,0.06,,2013-06-10 17:57:00,
2013-06-10 13:07:00,76.0,62.0,29.75,NW,315,3.0,8.0,61,0.00,,,0.06,,2013-06-10 18:07:00,
2013-06-10 13:14:00,76.0,62.0,29.75,NW,315,3.0,8.0,61,0.00,,,0.06,,2013-06-10 18:14:00,
2013-06-10 13:25:00,77.0,63.0,29.75,West,277,1.0,8.0,63,0.00,,,0.06,,2013-06-10 18:25:00,
2013-06-10 13:35:00,76.0,62.0,29.75,NNW,340,5.0,9.0,61,0.00,,,0.06,,2013-06-10 18:35:00,
2013-06-10 13:48:00,76.0,62.0,29.75,NNW,340,5.0,9.0,61,0.00,,,0.06,,2013-06-10 18:48:00,
2013-06-10 13:55:00,78.0,62.0,29.75,NW,313,5.0,8.0,58,0.00,,,0.06,,2013-06-10 18:55:00,
2013-06-10 14:03:00,78.0,62.0,29.75,NNW,338,4.0,12.0,57,0.00,,,0.06,,2013-06-10 19:03:00,
2013-06-10 14:13:00,78.0,62.0,29.75,NNW,338,4.0,12.0,57,0.00,,,0.06,,2013-06-10 19:13:00,
2013-06-10 14:22:00,78.0,62.0,29.75,NNW,341,2.0,9.0,57,0.00,,,0.06,,2013-06-10 19:22:00,
2013-06-10 14:33:00,78.0,62.0,29.75,NW,320,2.0,9.0,57,0.00,,,0.06,,2013-06-10 19:33:00,
2013-06-10 14:43:00,78.0,62.0,29.75,NW,320,2.0,9.0,57,0.00,,,0.06,,2013-06-10 19:43:00,
2013-06-10 14:52:00,78.0,61.0,29.75,NNW,329,2.0,9.0,55,0.00,,,0.06,,2013-06-10 19:52:00,
2013-06-10 15:03:00,79.0,62.0,29.75,WNW,293,4.0,12.0,57,0.00,,,0.06,,2013-06-10 20:03:00,
2013-06-10 15:12:00,79.0,62.0,29.75,WNW,293,4.0,12.0,57,0.00,,,0.06,,2013-06-10 20:12:00,
2013-06-10 15:22:00,78.0,62.0,29.75,NNW,331,6.0,15.0,57,0.00,,,0.06,,2013-06-10 20:22:00,
2013-06-10 15:32:00,80.0,63.0,29.76,West,272,6.0,13.0,57,0.00,,,0.06,,2013-06-10 20:32:00,
2013-06-10 15:43:00,80.0,63.0,29.76,West,272,6.0,13.0,57,0.00,,,0.06,,2013-06-10 20:43:00,
2013-06-10 15:52:00,80.0,63.0,29.75,NW,317,4.0,11.0,56,0.00,,,0.06,,2013-06-10 20:52:00,
2013-06-10 16:02:00,80.0,63.0,29.76,NNW,334,6.0,14.0,56,0.00,,,0.06,,2013-06-10 21:02:00,
2013-06-10 16:12:00,80.0,63.0,29.76,NNW,334,6.0,14.0,56,0.00,,,0.06,,2013-06-10 21:12:00,
2013-06-10 16:22:00,80.0,63.0,29.76,NW,326,5.0,12.0,57,0.00,,,0.06,,2013-06-10 21:22:00,
2013-06-10 16:33:00,81.0,64.0,29.76,NNW,345,4.0,10.0,57,0.00,,,0.06,,2013-06-10 21:33:00,
2013-06-10 16:43:00,81.0,64.0,29.76,NNW,345,4.0,10.0,57,0.00,,,0.06,,2013-06-10 21:43:00,
2013-06-10 16:53:00,80.0,63.0,29.75,NNW,330,4.0,10.0,56,0.00,,,0.06,,2013-06-10 21:53:00,
2013-06-10 17:03:00,80.0,63.0,29.75,NW,322,5.0,9.0,57,0.00,,,0.06,,2013-06-10 22:03:00,
2013-06-10 17:13:00,80.0,63.0,29.75,NW,322,5.0,9.0,57,0.00,,,0.06,,2013-06-10 22:13:00,
2013-06-10 17:22:00,80.0,63.0,29.76,NW,318,7.0,12.0,56,0.00,,,0.06,,2013-06-10 22:22:00,
2013-06-10 17:33:00,80.0,64.0,29.76,NNW,331,4.0,12.0,58,0.00,,,0.06,,2013-06-10 22:33:00,
2013-06-10 17:42:00,80.0,64.0,29.76,NNW,331,4.0,12.0,58,0.00,,,0.06,,2013-06-10 22:42:00,
2013-06-10 17:52:00,80.0,63.0,29.76,NW,321,6.0,11.0,57,0.00,,,0.06,,2013-06-10 22:52:00,
2013-06-10 18:02:00,79.0,63.0,29.77,NW,313,7.0,14.0,58,0.00,,,0.06,,2013-06-10 23:02:00,
2013-06-10 18:12:00,79.0,63.0,29.77,NW,313,7.0,14.0,58,0.00,,,0.06,,2013-06-10 23:12:00,
2013-06-10 18:22:00,79.0,63.0,29.77,NW,317,5.0,14.0,59,0.00,,,0.06,,2013-06-10 23:22:00,
2013-06-10 18:32:00,79.0,63.0,29.77,NNW,343,5.0,12.0,59,0.00,,,0.06,,2013-06-10 23:32:00,
2013-06-10 18:42:00,79.0,63.0,29.77,NNW,343,5.0,12.0,59,0.00,,,0.06,,2013-06-10 23:42:00,
2013-06-10 18:52:00,79.0,63.0,29.77,NW,305,6.0,12.0,58,0.00,,,0.06,,2013-06-10 23:52:00,
2013-06-10 19:02:00,78.0,62.0,29.77,West,280,5.0,12.0,59,0.00,,,0.04,,2013-06-11 00:02:00,
2013-06-10 19:12:00,78.0,63.0,29.78,North,350,6.0,12.0,60,0.00,,,0.04,,2013-06-11 00:12:00,
2013-06-10 19:22:00,78.0,63.0,29.78,North,350,6.0,12.0,60,0.00,,,0.04,,2013-06-11 00:22:00,
2013-06-10 19:32:00,77.0,63.0,29.78,North,355,5.0,14.0,61,0.00,,,0.04,,2013-06-11 00:32:00,
2013-06-10 19:42:00,77.0,63.0,29.78,North,355,5.0,14.0,61,0.00,,,0.04,,2013-06-11 00:42:00,
2013-06-10 19:52:00,76.0,62.0,29.79,NNW,327,5.0,13.0,62,0.00,,,0.04,,2013-06-11 00:52:00,
2013-06-10 20:02:00,76.0,62.0,29.79,NNW,329,5.0,12.0,63,0.00,,,0.04,,2013-06-11 01:02:00,
2013-06-10 20:12:00,76.0,62.0,29.79,NNW,329,5.0,12.0,63,0.00,,,0.04,,2013-06-11 01:12:00,
2013-06-10 20:22:00,75.0,63.0,29.79,NNW,330,3.0,10.0,66,0.00,,,0.04,,2013-06-11 01:22:00,
2013-06-10 20:32:00,74.0,62.0,29.78,NNW,329,2.0,6.0,67,0.00,,,0.04,,2013-06-11 01:32:00,
2013-06-10 20:42:00,74.0,62.0,29.78,NNW,329,2.0,6.0,67,0.00,,,0.04,,2013-06-11 01:42:00,
2013-06-10 20:53:00,73.0,62.0,29.79,NNW,327,2.0,6.0,68,0.00,,,0.04,,2013-06-11 01:53:00,
2013-06-10 21:02:00,72.0,62.0,29.79,NNW,339,2.0,4.0,70,0.00,,,0.03,,2013-06-11 02:02:00,
2013-06-10 21:12:00,72.0,62.0,29.79,NNW,339,2.0,4.0,70,0.00,,,0.03,,2013-06-11 02:12:00,
2013-06-10 21:22:00,72.0,62.0,29.79,NNW,339,1.0,6.0,72,0.00,,,0.03,,2013-06-11 02:22:00,
2013-06-10 21:32:00,71.0,62.0,29.80,NW,319,1.0,5.0,74,0.00,,,0.03,,2013-06-11 02:32:00,
2013-06-10 21:42:00,71.0,62.0,29.80,NNW,333,3.0,6.0,74,0.00,,,0.03,,2013-06-11 02:42:00,
2013-06-10 21:52:00,71.0,62.0,29.80,NNW,333,3.0,6.0,74,0.00,,,0.03,,2013-06-11 02:52:00,
2013-06-10 22:02:00,70.0,62.0,29.81,NNW,335,3.0,5.0,75,0.00,,,0.02,,2013-06-11 03:02:00,
2013-06-10 22:13:00,70.0,62.0,29.81,NNW,335,3.0,5.0,75,0.00,,,0.02,,2013-06-11 03:13:00,
2013-06-10 22:22:00,70.0,62.0,29.82,NNW,329,1.0,4.0,76,0.00,,,0.02,,2013-06-11 03:22:00,
2013-06-10 22:32:00,69.0,61.0,29.82,NNW,339,2.0,6.0,77,0.00,,,0.02,,2013-06-11 03:32:00,
2013-06-10 22:43:00,69.0,61.0,29.83,NW,323,1.0,4.0,77,0.00,,,0.02,,2013-06-11 03:43:00,
2013-06-10 22:53:00,69.0,61.0,29.83,NW,323,1.0,4.0,77,0.00,,,0.02,,2013-06-11 03:53:00,
2013-06-10 23:03:00,69.0,62.0,29.83,NNW,344,0.0,4.0,78,0.00,,,0.01,,2013-06-11 04:03:00,
2013-06-10 23:12:00,69.0,62.0,29.83,NNW,344,0.0,4.0,78,0.00,,,0.01,,2013-06-11 04:12:00,
2013-06-10 23:23:00,68.0,61.0,29.83,NNW,329,0.0,2.0,79,0.00,,,0.01,,2013-06-11 04:23:00,
2013-06-10 23:33:00,67.0,61.0,29.83,NW,314,0.0,2.0,80,0.00,,,0.01,,2013-06-11 04:33:00,
2013-06-10 23:42:00,67.0,61.0,29.83,NW,314,0.0,2.0,80,0.00,,,0.01,,2013-06-11 04:42:00,
2013-06-10 23:53:00,67.0,61.0,29.83,NW,323,0.0,2.0,81,0.00,,,0.01,,2013-06-11 04:53:00,